Wind_Speed
71 71 72 73 74 74 75 76 78 79 80 82 83 85 86 86 85 82 80 80 82 83 83 84 86 87 88 89 90 91 93 95 97 99 99 100 101 101 101 100 99 99
75 74 74 74 75 76 77 79 81 81 83 84 86 87 88 89 89 88 86 85 85 86 86 87 88 89 90 90 91 93 94 96 98 101 102 103 104 104 104 103 102 101
78 78 78 79 79 80 82 82 83 84 85 85 87 89 90 91 92 92 92 91 90 89 89 90 91 91 91 93 94 96 97 98 100 101 103 104 105 106 106 106 105 103
82 83 84 85 85 86 86 86 86 87 87 88 90 91 92 93 93 93 95 95 95 94 94 94 94 94 95 96 98 99 100 101 102 103 104 106 107 108 108 107 106 104
86 87 88 89 89 89 89 89 90 90 90 91 91 93 94 94 94 95 96 97 99 99 99 99 99 99 100 100 101 102 103 104 104 105 106 108 109 109 109 107 106 105
89 90 90 91 91 92 92 92 93 93 93 93 94 95 96 97 96 97 97 99 101 102 103 103 102 102 102 103 104 104 105 105 105 105 107 109 110 110 109 108 106 105
92 92 93 93 93 94 95 96 97 96 95 95 96 97 98 99 100 101 101 101 102 103 104 104 104 103 104 105 106 107 108 107 107 107 109 110 111 111 110 108 106 105
95 96 96 96 96 96 97 99 100 99 99 99 99 99 100 101 103 104 103 102 103 105 106 107 106 106 107 107 108 109 110 109 109 109 110 111 112 111 109 107 105 104
98 99 99 100 99 99 101 102 102 102 103 103 103 103 103 103 104 105 105 105 106 108 109 109 109 109 109 109 110 111 111 110 110 110 111 111 110 109 107 106 105 104
100 100 102 104 104 104 105 105 105 105 107 108 109 109 109 108 107 108 109 110 111 110 110 111 112 112 112 111 111 111 111 110 110 110 110 109 108 107 105 104 104 103
101 101 103 106 108 108 108 108 109 110 111 113 114 114 114 113 111 111 112 113 113 112 112 113 114 114 113 113 112 112 111 110 110 109 108 107 106 105 104 104 104 103
102 103 105 107 109 109 109 109 111 112 114 116 117 117 117 116 115 115 115 115 116 115 115 115 115 115 115 114 112 110 108 107 106 106 106 106 106 105 104 104 104 103
103 104 106 109 110 110 110 111 112 113 115 116 117 118 118 118 118 118 118 119 119 118 117 116 116 116 115 112 108 105 103 102 102 103 104 104 104 104 104 103 103 103
101 103 104 106 107 108 110 111 112 113 115 116 117 117 118 118 119 119 119 119 119 118 118 117 116 115 112 108 105 103 101 100 100 100 101 101 102 102 102 103 103 103
96 96 97 98 99 100 103 107 110 112 114 116 117 117 118 118 119 118 118 119 119 119 118 116 114 112 109 106 103 101 100 100 100 100 99 100 100 101 101 102 102 102
96 95 95 94 93 94 96 99 103 106 110 112 113 113 114 114 115 115 116 117 117 117 115 113 111 109 106 103 101 100 100 100 100 100 100 99 100 100 101 101 101 102
99 98 97 95 94 94 95 95 96 99 101 104 106 108 109 110 110 111 112 113 113 113 112 111 109 106 103 101 100 100 100 100 100 100 100 99 99 100 100 100 101 101
102 101 100 100 101 101 102 101 99 99 100 102 104 106 107 108 109 109 110 111 111 111 111 109 106 103 100 100 100 100 100 100 100 100 99 99 99 99 99 100 100 100
109 109 108 109 110 111 111 110 109 108 109 109 110 110 110 110 110 109 109 109 110 110 108 106 103 101 100 100 101 101 101 102 101 100 99 99 99 99 100 100 98 96
118 119 118 118 118 118 118 117 117 118 119 119 118 117 116 114 112 111 111 111 111 110 107 105 105 104 104 104 103 104 104 104 103 101 100 100 100 100 99 98 96 94
125 126 125 125 124 124 123 122 123 124 124 124 122 121 119 119 118 117 117 118 116 113 110 110 110 110 108 107 106 106 106 105 104 103 102 101 101 100 98 97 95 94
127 127 125 124 124 124 123 123 123 123 122 121 121 121 121 122 122 123 123 122 119 116 115 115 114 112 110 108 108 107 107 107 106 105 104 103 102 100 98 97 96 96
124 121 120 118 117 117 117 117 117 116 116 117 118 119 120 121 122 124 124 123 120 117 117 116 114 113 111 110 109 108 107 108 107 105 104 102 101 100 100 100 99 98
118 116 114 113 112 110 110 110 111 112 113 114 115 116 116 118 120 121 122 121 119 117 117 116 115 113 112 111 110 109 108 108 106 104 103 102 101 102 102 102 101 99
113 112 111 109 108 107 108 108 109 110 111 112 112 112 113 115 116 118 119 119 118 116 116 115 114 113 112 112 111 110 109 107 105 103 102 102 102 103 103 102 101 100
110 110 109 108 107 106 107 108 108 109 109 110 110 109 110 111 112 114 115 116 115 115 115 114 114 113 112 112 111 109 108 106 105 104 104 104 104 104 103 101 100 99
Wind_Direction
279 280 280 281 281 281 282 282 283 284 285 286 286 287 287 287 286 285 284 283 284 285 285 286 286 287 288 288 288 288 288 288 288 287 287 286 286 285 285 285 284 284
279 280 281 282 282 283 283 283 284 285 285 286 286 286 286 287 287 287 285 284 284 284 285 286 286 287 287 287 287 287 287 287 288 288 288 288 288 288 287 287 286 286
278 280 282 283 284 284 285 284 284 285 285 285 285 285 285 286 287 287 287 286 285 285 285 286 286 286 286 286 286 287 287 287 288 288 288 288 288 288 288 288 287 287
279 281 282 283 284 284 284 284 284 284 284 284 284 284 283 284 285 286 287 286 286 286 286 286 286 286 285 285 286 286 287 287 288 288 288 288 288 288 288 287 287 287
279 280 280 281 281 282 282 282 282 282 282 282 282 282 282 282 283 284 285 285 285 285 285 285 285 285 284 285 285 286 286 287 287 287 287 287 287 287 287 287 286 286
277 278 278 279 279 279 279 279 279 280 280 280 281 281 280 280 281 281 282 283 283 284 284 284 284 284 285 285 285 285 286 286 287 287 287 286 286 286 287 286 286 286
275 276 276 277 277 277 277 277 277 277 278 278 279 280 280 279 279 279 280 281 282 283 283 283 284 285 285 285 285 285 285 285 285 286 286 285 285 285 286 286 285 285
276 276 276 276 276 275 275 275 276 276 276 276 277 278 279 278 277 277 278 280 281 281 282 282 283 284 285 285 284 283 284 284 284 284 284 284 284 285 285 285 285 285
276 276 275 275 276 275 274 275 275 275 275 276 276 277 277 277 276 276 276 278 279 279 279 280 281 282 283 283 282 282 283 283 283 283 283 283 284 285 285 285 285 285
277 276 276 276 276 276 275 275 276 276 275 276 276 276 277 277 276 275 275 276 277 278 278 279 279 280 282 283 282 282 283 283 282 282 282 283 284 285 285 285 285 285
276 275 275 275 275 275 275 275 275 275 275 275 276 276 276 277 276 276 275 275 276 276 277 278 278 279 280 281 280 281 281 281 281 281 281 282 283 285 285 285 285 285
276 276 275 274 275 275 274 274 273 273 273 273 274 274 275 275 275 276 275 275 275 275 276 277 277 277 279 279 279 279 280 280 280 281 281 282 283 284 284 285 284 284
275 275 274 275 276 275 275 274 273 272 272 272 272 273 273 273 274 275 274 274 274 274 275 276 276 277 278 278 278 279 280 281 282 283 283 283 284 284 284 284 284 285
276 275 275 276 276 275 274 274 273 272 272 272 272 273 273 273 274 274 274 274 274 274 275 275 275 276 277 278 279 280 281 282 284 284 284 285 285 285 285 285 285 286
275 276 276 276 276 275 274 273 272 272 271 271 272 273 273 274 274 275 274 274 274 274 274 275 275 276 277 278 280 281 282 284 285 285 286 286 286 286 286 287 287 288
272 273 274 274 275 275 274 274 273 272 272 272 272 273 273 274 274 274 274 274 274 274 274 275 276 277 279 280 281 282 284 285 286 287 287 288 288 288 288 289 290 290
275 275 275 276 276 276 276 276 275 274 274 273 273 273 273 273 274 274 274 274 274 275 275 277 278 280 281 282 283 284 285 286 287 288 289 289 290 290 291 291 291 291
282 282 282 282 282 281 281 281 280 279 278 277 276 276 276 276 276 276 276 277 277 277 278 279 280 281 282 283 285 286 287 288 289 290 290 290 291 292 293 293 292 291
285 285 285 285 284 284 284 284 284 284 284 283 282 281 280 280 280 279 279 279 279 279 279 280 282 283 285 286 287 289 289 290 290 291 291 292 293 293 293 293 292 291
283 284 283 283 283 283 284 285 285 286 286 285 284 284 283 283 283 283 283 282 282 282 283 284 286 287 288 288 289 290 290 291 291 291 292 292 293 293 293 292 292 291
280 280 280 280 281 281 282 283 284 284 284 284 284 284 284 284 284 285 285 285 285 285 286 287 288 289 289 289 289 290 290 291 291 291 292 293 293 293 292 292 291 291
279 279 279 279 279 280 280 281 281 281 281 281 281 281 281 282 282 283 283 284 285 286 287 287 288 288 288 289 289 289 290 290 291 292 292 293 293 292 292 292 291 291
279 279 279 279 278 278 279 279 279 278 278 278 278 278 278 279 280 280 281 282 284 285 285 286 287 287 288 288 289 289 290 290 291 291 292 292 292 292 292 292 291 291
278 278 278 278 278 278 278 278 277 277 277 277 277 277 277 277 278 279 280 282 283 284 285 285 286 287 288 288 289 289 289 290 290 290 291 291 291 292 292 292 291 291
277 277 277 277 277 278 278 277 277 276 276 277 277 277 277 277 277 278 280 281 282 283 284 285 286 286 287 288 288 288 289 289 289 290 290 291 291 292 291 291 291 291
275 275 276 276 277 277 277 276 276 276 276 276 277 277 277 277 277 278 279 281 282 283 284 284 285 286 286 287 287 287 287 288 289 289 290 291 291 291 291 291 292 292
Height
10611 10610 10609 10608 10606 10604 10603 10601 10598 10596 10592 10589 10586 10583 10581 10581 10582 10586 10587 10586 10583 10579 10576 10574 10571 10568 10565 10563 10560 10557 10555 10552 10549 10546 10543 10541 10539 10537 10536 10534 10532 10530
10600 10599 10598 10597 10595 10593 10592 10590 10588 10586 10583 10579 10575 10571 10568 10566 10566 10568 10570 10571 10570 10568 10565 10562 10559 10556 10554 10551 10547 10544 10541 10538 10535 10532 10528 10526 10523 10521 10520 10518 10517 10515
10589 10588 10587 10586 10584 10582 10580 10579 10577 10575 10573 10570 10566 10561 10558 10555 10553 10553 10552 10552 10553 10554 10553 10550 10547 10544 10541 10537 10534 10531 10527 10524 10521 10517 10514 10512 10509 10507 10505 10503 10501 10500
10577 10577 10576 10573 10572 10570 10568 10566 10564 10562 10561 10559 10555 10551 10548 10545 10543 10541 10538 10535 10535 10536 10537 10536 10533 10531 10528 10525 10521 10517 10513 10510 10507 10503 10500 10498 10495 10493 10491 10489 10487 10485
10566 10565 10563 10561 10560 10558 10557 10554 10551 10549 10548 10546 10543 10540 10536 10534 10532 10530 10527 10524 10521 10520 10519 10519 10518 10516 10513 10511 10508 10504 10500 10497 10493 10490 10486 10484 10482 10480 10478 10475 10473 10471
10554 10552 10550 10549 10547 10546 10544 10541 10538 10536 10535 10533 10531 10528 10524 10522 10520 10518 10515 10513 10510 10507 10504 10503 10503 10500 10498 10496 10493 10490 10487 10483 10480 10476 10473 10471 10468 10466 10464 10462 10459 10457
10541 10539 10538 10537 10535 10533 10531 10527 10525 10524 10523 10521 10519 10516 10512 10510 10508 10506 10504 10501 10498 10495 10491 10489 10488 10486 10483 10481 10479 10476 10473 10470 10467 10463 10459 10457 10454 10452 10450 10448 10445 10443
10528 10527 10526 10524 10523 10521 10517 10513 10512 10512 10510 10508 10507 10504 10501 10498 10495 10493 10491 10489 10486 10482 10478 10476 10474 10472 10469 10467 10464 10461 10458 10456 10453 10450 10446 10442 10440 10438 10436 10434 10431 10428
10515 10514 10512 10510 10509 10507 10503 10499 10498 10498 10496 10494 10492 10490 10488 10485 10482 10481 10479 10476 10473 10469 10466 10463 10460 10458 10455 10452 10449 10446 10444 10442 10439 10435 10431 10428 10426 10424 10422 10419 10416 10413
10502 10499 10496 10495 10494 10491 10488 10486 10485 10483 10481 10478 10477 10475 10473 10471 10470 10468 10466 10463 10460 10456 10453 10450 10447 10444 10441 10439 10435 10433 10430 10428 10424 10421 10417 10415 10412 10409 10407 10405 10402 10399
10489 10485 10483 10480 10477 10474 10473 10472 10470 10468 10465 10462 10461 10459 10456 10456 10455 10453 10451 10448 10445 10442 10439 10436 10433 10431 10428 10425 10422 10420 10417 10414 10411 10407 10404 10401 10398 10396 10393 10390 10387 10385
10473 10470 10467 10464 10461 10460 10458 10457 10455 10452 10449 10447 10445 10442 10441 10440 10439 10437 10435 10433 10430 10427 10424 10422 10419 10417 10414 10411 10409 10407 10404 10401 10398 10394 10391 10388 10385 10382 10378 10375 10372 10369
10457 10454 10451 10448 10447 10445 10442 10440 10437 10435 10433 10430 10428 10426 10425 10423 10422 10420 10418 10416 10414 10412 10409 10407 10404 10402 10399 10397 10395 10393 10390 10388 10385 10381 10378 10374 10370 10367 10363 10360 10356 10353
10439 10437 10435 10434 10432 10429 10427 10423 10420 10419 10417 10414 10411 10410 10408 10407 10405 10403 10401 10399 10398 10396 10394 10392 10389 10387 10384 10382 10380 10379 10376 10374 10371 10367 10364 10359 10355 10351 10347 10343 10340 10336
10423 10422 10420 10418 10415 10413 10410 10407 10405 10403 10401 10398 10396 10395 10393 10391 10389 10386 10384 10382 10381 10378 10376 10375 10373 10371 10369 10367 10366 10364 10361 10359 10356 10352 10348 10344 10339 10335 10331 10327 10324 10320
10409 10408 10405 10402 10399 10396 10394 10391 10389 10387 10385 10384 10382 10380 10378 10376 10373 10370 10368 10365 10363 10361 10359 10357 10356 10355 10354 10353 10351 10349 10345 10342 10339 10335 10331 10327 10322 10318 10315 10312 10308 10305
10391 10390 10388 10387 10384 10382 10379 10376 10374 10373 10371 10370 10368 10366 10363 10360 10357 10354 10351 10347 10345 10344 10342 10341 10340 10340 10340 10339 10335 10332 10329 10325 10322 10319 10315 10311 10307 10302 10299 10297 10293 10289
10372 10372 10372 10370 10368 10365 10363 10361 10360 10358 10357 10355 10353 10351 10348 10345 10342 10338 10334 10331 10329 10327 10326 10325 10325 10326 10324 10322 10318 10315 10312 10308 10305 10302 10298 10294 10291 10288 10285 10281 10278 10274
10356 10357 10358 10356 10354 10351 10348 10347 10346 10344 10342 10340 10337 10334 10332 10329 10327 10323 10319 10316 10312 10310 10310 10310 10310 10309 10307 10304 10301 10298 10295 10292 10289 10285 10282 10279 10276 10273 10270 10266 10263 10260
10342 10343 10344 10343 10341 10339 10336 10334 10333 10330 10328 10325 10321 10318 10315 10312 10309 10306 10302 10298 10294 10294 10295 10294 10293 10291 10290 10288 10286 10283 10280 10276 10273 10270 10267 10265 10262 10259 10256 10252 10249 10246
10326 10326 10327 10327 10325 10324 10322 10321 10319 10316 10313 10309 10305 10302 10299 10296 10293 10290 10286 10281 10279 10280 10280 10279 10277 10276 10275 10273 10270 10268 10266 10262 10258 10255 10253 10251 10248 10244 10241 10238 10235 10233
10308 10308 10309 10310 10309 10308 10308 10307 10304 10302 10298 10293 10290 10288 10285 10283 10280 10276 10272 10268 10267 10268 10267 10265 10264 10262 10260 10258 10256 10254 10252 10248 10244 10241 10239 10237 10233 10229 10226 10223 10221 10218
10291 10291 10292 10292 10292 10293 10292 10291 10288 10286 10283 10278 10275 10274 10272 10270 10267 10262 10257 10254 10254 10254 10253 10251 10249 10247 10245 10243 10241 10239 10238 10235 10231 10228 10225 10222 10218 10215 10211 10208 10206 10203
10275 10275 10275 10274 10275 10276 10276 10275 10272 10270 10267 10263 10260 10259 10258 10255 10252 10248 10244 10241 10240 10239 10238 10236 10235 10233 10230 10228 10226 10225 10224 10221 10217 10215 10212 10209 10205 10201 10198 10194 10191 10188
10261 10259 10259 10258 10259 10260 10259 10257 10255 10253 10251 10248 10245 10244 10243 10240 10238 10235 10231 10228 10227 10226 10224 10222 10221 10219 10217 10215 10213 10212 10209 10206 10203 10201 10198 10195 10192 10188 10184 10180 10176 10174
10246 10244 10244 10244 10243 10244 10243 10241 10239 10236 10234 10232 10230 10229 10228 10226 10224 10222 10218 10215 10214 10212 10211 10209 10207 10206 10204 10202 10200 10198 10195 10192 10189 10186 10183 10181 10178 10175 10171 10167 10163 10160